| time (UTC) | temp C | wind direction | speed KPH | gust KPH | rain 1hr cm | rain 24hr cm | rain mn cm | humidity % | barometer mb |
| 20260504041507 | 12 | 229 | 3.2 | 11.3 | 0.03 | 1.50 | 1.42 | 90 | 1014.1 |
| 20260504040007 | 12 | 251 | 1.6 | 16.1 | 0.03 | 1.50 | 1.42 | 92 | 1014.0 |
| 20260504034506 | 12 | 256 | 6.4 | 16.1 | 0.00 | 1.45 | 1.40 | 91 | 1014.0 |
| 20260504033002 | 13 | 310 | 6.4 | 19.3 | 0.00 | 1.45 | 1.40 | 91 | 1013.9 |
| 20260504031600 | 13 | 289 | 6.4 | 12.9 | 0.00 | 1.45 | 1.40 | 91 | 1013.7 |
| 20260504030059 | 13 | 239 | 4.8 | 16.1 | 0.00 | 1.45 | 1.40 | 91 | 1013.7 |
| 20260504024606 | 13 | 229 | 4.8 | 16.1 | 0.00 | 1.45 | 1.40 | 92 | 1013.8 |
| 20260504023055 | 13 | 312 | 1.6 | 12.9 | 0.15 | 1.45 | 1.40 | 92 | 1014.2 |
| 20260504021553 | 13 | 247 | 1.6 | 9.7 | 0.18 | 1.45 | 1.40 | 92 | 1014.4 |
| 20260504020051 | 13 | 289 | 3.2 | 8.0 | 0.23 | 1.45 | 1.40 | 92 | 1014.8 |
| 20260504014552 | 13 | 261 | 3.2 | 14.5 | 0.23 | 1.45 | 1.40 | 92 | 1014.7 |
| 20260504013051 | 13 | 260 | 4.8 | 16.1 | 0.08 | 1.35 | 1.27 | 92 | 1015.2 |
| 20260504011550 | 14 | 337 | 4.8 | 16.1 | 0.10 | 1.30 | 1.22 | 91 | 1015.1 |
| 20260504010053 | 15 | 310 | 6.4 | 17.7 | 0.08 | 1.27 | 1.17 | 91 | 1015.2 |
| 20260504004543 | 14 | 260 | 4.8 | 17.7 | 0.08 | 1.27 | 1.17 | 91 | 1015.3 |
| 20260504003042 | 14 | 324 | 4.8 | 17.7 | 0.08 | 1.27 | 1.17 | 91 | 1015.4 |
| 20260504001600 | 15 | 303 | 6.4 | 17.7 | 0.00 | 1.17 | 1.09 | 90 | 1015.5 |
| 20260503234536 | 15 | 293 | 4.8 | 19.3 | 0.00 | 1.17 | 1.09 | 91 | 1015.3 |
| 20260503233034 | 15 | 287 | 8.0 | 27.4 | 0.03 | 1.17 | 1.09 | 91 | 1015.5 |
| 20260503231532 | 15 | 313 | 11.3 | 22.5 | 0.23 | 1.17 | 1.09 | 91 | 1015.6 |
| 20260503230036 | 14 | 289 | 6.4 | 20.9 | 0.36 | 1.17 | 1.09 | 92 | 1015.5 |
| 20260503224530 | 14 | 17 | 3.2 | 14.5 | 0.36 | 1.17 | 1.09 | 92 | 1015.5 |
| 20260503223029 | 14 | 299 | 6.4 | 24.1 | 0.43 | 1.14 | 1.07 | 92 | 1015.4 |
| 20260503221532 | 14 | 332 | 8.0 | 20.9 | 0.23 | 0.91 | 0.84 | 92 | 1015.5 |
| 20260503220027 | 14 | 301 | 6.4 | 14.5 | 0.13 | 0.81 | 0.71 | 92 | 1015.5 |
| 20260503071524 | 17 | 238 | 1.6 | 0.0 | 0.00 | 0.00 | 0.05 | 79 | 1017.1 |
| 20260503054506 | 18 | 194 | 0.0 | 0.0 | 0.00 | 0.05 | 0.05 | 73 | 1017.4 |
| 20260503053009 | 18 | 194 | 0.0 | 1.6 | 0.00 | 0.05 | 0.05 | 71 | 1017.5 |
| 20260503051507 | 19 | 220 | 0.0 | 1.6 | 0.00 | 0.05 | 0.05 | 68 | 1017.5 |
| 20260503050003 | 20 | 209 | 0.0 | 6.4 | 0.00 | 0.05 | 0.05 | 66 | 1017.7 |
| 20260503044501 | 19 | 211 | 1.6 | 8.0 | 0.00 | 0.05 | 0.05 | 69 | 1017.8 |
| 20260503043100 | 19 | 282 | 0.0 | 4.8 | 0.00 | 0.05 | 0.05 | 68 | 1018.0 |